Voltar ao catálogo

YUNYAO-1 18

AtivoCiênciaVLEO
NORAD 58758·PAYLOAD·🇨🇳 China

Lançado Jan 11, 2024 de Yellow Sea Launch Area

Loading…

Próximas Passagens (próximas 24 horas)

TLE

AtualizadoSource: Space-Track

Época: Sep 14, 2026, 15:34 UTC

1 58758U 24009A   26257.64900194  .00009439  00000-0  38260-3 0  9990
2 58758  50.0124  72.8053 0005391 260.7390  99.2956 15.25241177148498

Acompanhe YUNYAO-1 18 em tempo real com AllMySat

Download on the App Store